Time,TemperatureF,DewpointF,PressureIn,WindDirection,WindDirectionDegrees,WindSpeedMPH,WindSpeedGustMPH,Humidity,HourlyPrecipIn,Conditions,Clouds,dailyrainin,SoftwareType,DateUTC
2013-01-20 00:06:00,37.4,37.1,29.91,NW,315,10.4,-999.0,99,-99.99,,,0.00,Acu-Link.com,2013-01-20 06:06:00,
2013-01-20 00:21:00,36.3,36.0,29.93,WNW,292,11.4,-999.0,99,-99.99,,,0.00,Acu-Link.com,2013-01-20 06:21:00,
2013-01-20 00:51:00,34.7,34.4,29.96,NW,315,13.5,-999.0,99,-99.99,,,0.00,Acu-Link.com,2013-01-20 06:51:00,
2013-01-20 01:06:00,32.4,32.2,29.98,NW,315,16.6,-999.0,99,-99.99,,,0.00,Acu-Link.com,2013-01-20 07:06:00,
2013-01-20 01:21:00,31.8,31.6,30.00,NW,315,18.1,-999.0,99,-99.99,,,0.01,Acu-Link.com,2013-01-20 07:21:00,
2013-01-20 01:36:00,31.3,31.1,30.00,WNW,292,23.3,-999.0,99,-99.99,,,0.01,Acu-Link.com,2013-01-20 07:36:00,
2013-01-20 01:51:00,30.2,30.0,30.02,NE,45,14.0,-999.0,99,-99.99,,,0.01,Acu-Link.com,2013-01-20 07:51:00,
2013-01-20 02:07:00,29.5,29.3,30.04,West,270,20.2,-999.0,99,-99.99,,,0.01,Acu-Link.com,2013-01-20 08:07:00,
2013-01-20 02:22:00,28.2,28.0,30.05,WNW,292,18.6,-999.0,99,-99.99,,,0.01,Acu-Link.com,2013-01-20 08:22:00,
2013-01-20 02:37:00,26.8,26.6,30.06,NNW,337,17.1,-999.0,99,-99.99,,,0.01,Acu-Link.com,2013-01-20 08:37:00,
2013-01-20 02:52:00,25.5,25.3,30.07,NW,315,16.1,-999.0,99,-99.99,,,0.01,Acu-Link.com,2013-01-20 08:52:00,
2013-01-20 03:15:00,25.2,25.0,30.08,NW,315,18.6,-999.0,99,-99.99,,,0.01,Acu-Link.com,2013-01-20 09:15:00,
2013-01-20 03:30:00,24.8,24.6,30.09,NW,315,19.7,-999.0,99,-99.99,,,0.01,Acu-Link.com,2013-01-20 09:30:00,
2013-01-20 03:45:00,24.3,24.1,30.09,NW,315,11.4,-999.0,99,-99.99,,,0.01,Acu-Link.com,2013-01-20 09:45:00,
2013-01-20 04:00:00,23.7,23.5,30.10,WNW,292,9.4,-999.0,99,-99.99,,,0.01,Acu-Link.com,2013-01-20 10:00:00,
2013-01-20 04:15:00,23.4,23.2,30.10,NW,315,16.6,-999.0,99,-99.99,,,0.01,Acu-Link.com,2013-01-20 10:15:00,
2013-01-20 04:31:00,22.5,22.3,30.11,NW,315,13.5,-999.0,99,-99.99,,,0.01,Acu-Link.com,2013-01-20 10:31:00,
2013-01-20 04:46:00,22.1,21.9,30.12,North,0,10.9,-999.0,99,-99.99,,,0.01,Acu-Link.com,2013-01-20 10:46:00,
2013-01-20 05:01:00,22.1,21.9,30.14,West,270,11.9,-999.0,99,-99.99,,,0.01,Acu-Link.com,2013-01-20 11:01:00,
2013-01-20 05:16:00,21.0,20.8,30.15,North,0,22.7,-999.0,99,-99.99,,,0.01,Acu-Link.com,2013-01-20 11:16:00,
2013-01-20 05:31:00,20.5,20.3,30.16,NNE,22,14.0,-999.0,99,-99.99,,,0.01,Acu-Link.com,2013-01-20 11:31:00,
2013-01-20 05:46:00,20.3,20.1,30.17,NNW,337,12.5,-999.0,99,-99.99,,,0.01,Acu-Link.com,2013-01-20 11:46:00,
2013-01-20 06:01:00,20.3,20.1,30.17,NNW,337,14.5,-999.0,99,-99.99,,,0.01,Acu-Link.com,2013-01-20 12:01:00,
2013-01-20 06:16:00,19.0,18.8,30.17,WNW,292,11.4,-999.0,99,-99.99,,,0.01,Acu-Link.com,2013-01-20 12:16:00,
2013-01-20 06:31:00,18.7,18.5,30.17,NNW,337,7.8,-999.0,99,-99.99,,,0.01,Acu-Link.com,2013-01-20 12:31:00,
2013-01-20 06:47:00,18.0,17.8,30.16,NW,315,9.9,-999.0,99,-99.99,,,0.01,Acu-Link.com,2013-01-20 12:47:00,
2013-01-20 07:02:00,18.0,17.8,30.17,NW,315,13.0,-999.0,99,-99.99,,,0.01,Acu-Link.com,2013-01-20 13:02:00,
2013-01-20 07:17:00,17.4,17.2,30.17,NNW,337,13.5,-999.0,99,-99.99,,,0.01,Acu-Link.com,2013-01-20 13:17:00,
2013-01-20 07:32:00,17.2,17.0,30.18,NW,315,11.9,-999.0,99,-99.99,,,0.01,Acu-Link.com,2013-01-20 13:32:00,
2013-01-20 07:47:00,17.4,17.2,30.18,NNW,337,10.9,-999.0,99,-99.99,,,0.01,Acu-Link.com,2013-01-20 13:47:00,
2013-01-20 08:02:00,17.8,17.6,30.20,WNW,292,13.0,-999.0,99,-99.99,,,0.01,Acu-Link.com,2013-01-20 14:02:00,
2013-01-20 08:17:00,18.1,17.9,30.20,NNW,337,14.0,-999.0,99,-99.99,,,0.01,Acu-Link.com,2013-01-20 14:17:00,
2013-01-20 08:32:00,18.3,18.1,30.20,WNW,292,12.5,-999.0,99,-99.99,,,0.01,Acu-Link.com,2013-01-20 14:32:00,
2013-01-20 08:48:00,18.5,18.3,30.20,NW,315,10.9,-999.0,99,-99.99,,,0.01,Acu-Link.com,2013-01-20 14:48:00,
2013-01-20 09:03:00,18.7,18.5,30.20,NNE,22,11.9,-999.0,99,-99.99,,,0.01,Acu-Link.com,2013-01-20 15:03:00,
2013-01-20 09:18:00,19.6,19.4,30.21,WNW,292,9.4,-999.0,99,-99.99,,,0.01,Acu-Link.com,2013-01-20 15:18:00,
2013-01-20 09:33:00,19.8,19.6,30.22,NW,315,8.3,-999.0,99,-99.99,,,0.01,Acu-Link.com,2013-01-20 15:33:00,
2013-01-20 09:48:00,19.4,19.2,30.23,NW,315,5.8,-999.0,99,-99.99,,,0.01,Acu-Link.com,2013-01-20 15:48:00,
2013-01-20 10:03:00,20.8,20.6,30.23,WNW,292,8.3,-999.0,99,-99.99,,,0.01,Acu-Link.com,2013-01-20 16:03:00,
2013-01-20 10:18:00,21.4,21.2,30.23,NNW,337,7.8,-999.0,99,-99.99,,,0.01,Acu-Link.com,2013-01-20 16:18:00,
2013-01-20 10:33:00,21.6,21.4,30.23,NW,315,7.3,-999.0,99,-99.99,,,0.01,Acu-Link.com,2013-01-20 16:33:00,
2013-01-20 10:48:00,22.5,22.3,30.23,NNW,337,11.9,-999.0,99,-99.99,,,0.01,Acu-Link.com,2013-01-20 16:48:00,
2013-01-20 11:04:00,22.1,21.9,30.22,NNW,337,6.8,-999.0,99,-99.99,,,0.01,Acu-Link.com,2013-01-20 17:04:00,
2013-01-20 11:19:00,22.6,22.4,30.22,NNW,337,7.8,-999.0,99,-99.99,,,0.01,Acu-Link.com,2013-01-20 17:19:00,
2013-01-20 11:34:00,22.5,22.3,30.20,NNW,337,6.3,-999.0,99,-99.99,,,0.01,Acu-Link.com,2013-01-20 17:34:00,
2013-01-20 11:49:00,23.2,23.0,30.19,NW,315,7.3,-999.0,99,-99.99,,,0.01,Acu-Link.com,2013-01-20 17:49:00,
2013-01-20 12:04:00,23.7,23.5,30.18,WNW,292,6.3,-999.0,99,-99.99,,,0.01,Acu-Link.com,2013-01-20 18:04:00,
2013-01-20 12:19:00,23.9,23.7,30.17,West,270,10.9,-999.0,99,-99.99,,,0.01,Acu-Link.com,2013-01-20 18:19:00,
2013-01-20 12:34:00,24.8,24.6,30.19,West,270,8.9,-999.0,99,-99.99,,,0.01,Acu-Link.com,2013-01-20 18:34:00,
2013-01-20 12:49:00,24.3,24.1,30.18,WNW,292,9.9,-999.0,99,-99.99,,,0.01,Acu-Link.com,2013-01-20 18:49:00,
2013-01-20 13:04:00,25.5,25.3,30.17,WNW,292,7.8,-999.0,99,-99.99,,,0.01,Acu-Link.com,2013-01-20 19:04:00,
2013-01-20 13:20:00,25.0,24.8,30.17,NW,315,11.4,-999.0,99,-99.99,,,0.01,Acu-Link.com,2013-01-20 19:20:00,
2013-01-20 13:35:00,25.0,24.8,30.17,NW,315,9.4,-999.0,99,-99.99,,,0.01,Acu-Link.com,2013-01-20 19:35:00,
2013-01-20 13:50:00,24.6,24.4,30.17,NW,315,10.9,-999.0,99,-99.99,,,0.01,Acu-Link.com,2013-01-20 19:50:00,
2013-01-20 14:05:00,26.2,26.0,30.18,NNW,337,6.8,-999.0,99,-99.99,,,0.01,Acu-Link.com,2013-01-20 20:05:00,
2013-01-20 14:20:00,24.4,24.2,30.18,NW,315,7.8,-999.0,99,-99.99,,,0.01,Acu-Link.com,2013-01-20 20:20:00,
2013-01-20 14:35:00,23.9,23.7,30.19,North,0,8.9,-999.0,99,-99.99,,,0.01,Acu-Link.com,2013-01-20 20:35:00,
2013-01-20 14:50:00,23.7,23.5,30.18,WNW,292,9.9,-999.0,99,-99.99,,,0.01,Acu-Link.com,2013-01-20 20:50:00,
2013-01-20 15:05:00,23.4,23.2,30.17,NW,315,10.4,-999.0,99,-99.99,,,0.01,Acu-Link.com,2013-01-20 21:05:00,
2013-01-20 15:20:00,23.7,23.5,30.17,NNW,337,8.3,-999.0,99,-99.99,,,0.01,Acu-Link.com,2013-01-20 21:20:00,
2013-01-20 15:36:00,23.9,23.7,30.18,West,270,9.4,-999.0,99,-99.99,,,0.01,Acu-Link.com,2013-01-20 21:36:00,
2013-01-20 15:51:00,23.5,23.3,30.18,West,270,7.8,-999.0,99,-99.99,,,0.01,Acu-Link.com,2013-01-20 21:51:00,
2013-01-20 16:06:00,23.5,23.3,30.18,WNW,292,10.4,-999.0,99,-99.99,,,0.01,Acu-Link.com,2013-01-20 22:06:00,
2013-01-20 16:21:00,21.9,21.7,30.19,NW,315,9.4,-999.0,99,-99.99,,,0.01,Acu-Link.com,2013-01-20 22:21:00,
2013-01-20 16:36:00,23.2,23.0,30.20,West,270,8.3,-999.0,99,-99.99,,,0.01,Acu-Link.com,2013-01-20 22:36:00,
2013-01-20 16:51:00,22.8,22.6,30.19,West,270,8.3,-999.0,99,-99.99,,,0.01,Acu-Link.com,2013-01-20 22:51:00,
2013-01-20 17:06:00,22.6,22.4,30.18,North,0,6.8,-999.0,99,-99.99,,,0.01,Acu-Link.com,2013-01-20 23:06:00,
2013-01-20 17:21:00,22.1,21.9,30.18,NNE,22,4.7,-999.0,99,-99.99,,,0.01,Acu-Link.com,2013-01-20 23:21:00,
2013-01-20 18:07:00,21.4,21.2,30.19,WNW,292,5.8,-999.0,99,-99.99,,,0.01,Acu-Link.com,2013-01-21 00:07:00,
2013-01-20 18:22:00,21.7,21.5,30.19,WNW,292,6.3,-999.0,99,-99.99,,,0.01,Acu-Link.com,2013-01-21 00:22:00,
2013-01-20 18:37:00,21.7,21.5,30.19,WNW,292,4.7,-999.0,99,-99.99,,,0.01,Acu-Link.com,2013-01-21 00:37:00,
2013-01-20 19:07:00,21.4,21.2,30.18,WNW,292,7.8,-999.0,99,-99.99,,,0.01,Acu-Link.com,2013-01-21 01:07:00,
2013-01-20 19:22:00,21.2,21.0,30.18,NW,315,5.8,-999.0,99,-99.99,,,0.01,Acu-Link.com,2013-01-21 01:22:00,
2013-01-20 19:37:00,21.0,20.8,30.19,NNW,337,6.3,-999.0,99,-99.99,,,0.01,Acu-Link.com,2013-01-21 01:37:00,
2013-01-20 19:53:00,20.8,20.6,30.18,NNW,337,7.3,-999.0,99,-99.99,,,0.01,Acu-Link.com,2013-01-21 01:53:00,
2013-01-20 20:08:00,20.7,20.5,30.17,WNW,292,9.9,-999.0,99,-99.99,,,0.01,Acu-Link.com,2013-01-21 02:08:00,
2013-01-20 20:23:00,20.5,20.3,30.17,NW,315,7.8,-999.0,99,-99.99,,,0.01,Acu-Link.com,2013-01-21 02:23:00,
2013-01-20 20:38:00,20.3,20.1,30.17,WNW,292,5.3,-999.0,99,-99.99,,,0.01,Acu-Link.com,2013-01-21 02:38:00,
2013-01-20 20:53:00,20.1,19.9,30.17,NW,315,7.3,-999.0,99,-99.99,,,0.01,Acu-Link.com,2013-01-21 02:53:00,
2013-01-20 21:08:00,19.8,19.6,30.17,NNW,337,7.8,-999.0,99,-99.99,,,0.01,Acu-Link.com,2013-01-21 03:08:00,
2013-01-20 21:23:00,19.6,19.4,30.17,NW,315,8.3,-999.0,99,-99.99,,,0.01,Acu-Link.com,2013-01-21 03:23:00,
2013-01-20 21:38:00,19.4,19.2,30.17,West,270,5.8,-999.0,99,-99.99,,,0.01,Acu-Link.com,2013-01-21 03:38:00,
2013-01-20 21:53:00,19.4,19.2,30.18,WNW,292,8.9,-999.0,99,-99.99,,,0.01,Acu-Link.com,2013-01-21 03:53:00,
2013-01-20 22:09:00,19.2,19.0,30.17,WNW,292,6.8,-999.0,99,-99.99,,,0.01,Acu-Link.com,2013-01-21 04:09:00,
2013-01-20 22:24:00,19.2,19.0,30.17,NNW,337,4.7,-999.0,99,-99.99,,,0.01,Acu-Link.com,2013-01-21 04:24:00,
2013-01-20 22:39:00,19.0,18.8,30.17,NW,315,5.3,-999.0,99,-99.99,,,0.01,Acu-Link.com,2013-01-21 04:39:00,
2013-01-20 22:54:00,18.9,18.7,30.16,West,270,6.8,-999.0,99,-99.99,,,0.01,Acu-Link.com,2013-01-21 04:54:00,
2013-01-20 23:09:00,18.7,18.5,30.16,WNW,292,6.3,-999.0,99,-99.99,,,0.01,Acu-Link.com,2013-01-21 05:09:00,
2013-01-20 23:24:00,18.7,18.5,30.16,WNW,292,7.3,-999.0,99,-99.99,,,0.01,Acu-Link.com,2013-01-21 05:24:00,
2013-01-20 23:39:00,18.9,18.7,30.16,WNW,292,8.9,-999.0,99,-99.99,,,0.01,Acu-Link.com,2013-01-21 05:39:00,
2013-01-20 23:54:00,18.9,18.7,30.15,WNW,292,6.8,-999.0,99,-99.99,,,0.01,Acu-Link.com,2013-01-21 05:54:00,